Time,TemperatureF,DewpointF,PressureIn,WindDirection,WindDirectionDegrees,WindSpeedMPH,WindSpeedGustMPH,Humidity,HourlyPrecipIn,Conditions,Clouds,dailyrainin,SoftwareType,DateUTC
2013-07-10 00:00:00,78.0,65.7,29.68,WSW,247,10.0,16.0,66,0.00,,,0.00,Weather View 32 v70,2013-07-10 04:00:00,
2013-07-10 00:05:00,78.0,62.0,29.68,WSW,247,7.0,16.0,58,0.00,,,0.00,Weather View 32 v70,2013-07-10 04:05:00,
2013-07-10 00:09:00,78.0,62.0,29.68,WSW,247,7.0,16.0,58,0.00,,,0.00,Weather View 32 v70,2013-07-10 04:09:00,
2013-07-10 00:15:00,78.0,62.9,29.66,SSE,157,11.0,16.0,60,0.00,,,0.00,Weather View 32 v70,2013-07-10 04:15:00,
2013-07-10 00:20:00,78.0,66.1,29.65,WSW,247,13.0,16.0,67,0.00,,,0.00,Weather View 32 v70,2013-07-10 04:20:00,
2013-07-10 00:25:00,78.0,62.5,29.65,WSW,247,13.0,16.0,59,0.00,,,0.00,Weather View 32 v70,2013-07-10 04:25:00,
2013-07-10 00:30:00,78.0,65.7,29.65,WSW,247,10.0,16.0,66,0.00,,,0.00,Weather View 32 v70,2013-07-10 04:30:00,
2013-07-10 00:35:00,78.0,62.0,29.65,WSW,247,7.0,16.0,58,0.00,,,0.00,Weather View 32 v70,2013-07-10 04:35:00,
2013-07-10 00:40:00,78.0,66.1,29.65,WSW,247,6.0,16.0,67,0.00,,,0.00,Weather View 32 v70,2013-07-10 04:40:00,
2013-07-10 00:45:00,78.0,62.5,29.65,WSW,247,8.0,16.0,59,0.00,,,0.00,Weather View 32 v70,2013-07-10 04:45:00,
2013-07-10 00:50:00,78.0,66.1,29.65,WSW,247,11.0,16.0,67,0.00,,,0.00,Weather View 32 v70,2013-07-10 04:50:00,
2013-07-10 00:55:00,78.0,62.0,29.65,WSW,247,7.0,16.0,58,0.00,,,0.00,Weather View 32 v70,2013-07-10 04:55:00,
2013-07-10 01:00:00,78.0,65.7,29.66,WSW,247,10.0,16.0,66,0.00,,,0.00,Weather View 32 v70,2013-07-10 05:00:00,
2013-07-10 01:05:00,78.0,62.5,29.66,WSW,247,9.0,16.0,59,0.00,,,0.00,Weather View 32 v70,2013-07-10 05:05:00,
2013-07-10 01:10:00,78.0,66.1,29.67,SSE,157,10.0,16.0,67,0.00,,,0.00,Weather View 32 v70,2013-07-10 05:10:00,
2013-07-10 01:20:00,78.0,65.7,29.65,WSW,247,7.0,16.0,66,0.00,,,0.00,Weather View 32 v70,2013-07-10 05:20:00,
2013-07-10 01:25:00,78.0,62.5,29.65,WSW,247,10.0,14.0,59,0.00,,,0.00,Weather View 32 v70,2013-07-10 05:25:00,
2013-07-10 01:35:00,78.0,62.5,29.64,SSE,157,7.0,12.0,59,0.00,,,0.00,Weather View 32 v70,2013-07-10 05:35:00,
2013-07-10 01:45:00,78.0,62.5,29.66,SSE,157,9.0,12.0,59,0.00,,,0.00,Weather View 32 v70,2013-07-10 05:45:00,
2013-07-10 01:50:00,78.0,65.7,29.63,SSE,157,6.0,12.0,66,0.00,,,0.00,Weather View 32 v70,2013-07-10 05:50:00,
2013-07-10 01:55:00,78.0,62.5,29.63,SSE,157,7.0,12.0,59,0.00,,,0.00,Weather View 32 v70,2013-07-10 05:55:00,
2013-07-10 02:00:00,78.0,65.7,29.63,SSE,157,7.0,12.0,66,0.00,,,0.00,Weather View 32 v70,2013-07-10 06:00:00,
2013-07-10 02:05:00,78.0,62.0,29.63,SSE,157,5.0,12.0,58,0.00,,,0.00,Weather View 32 v70,2013-07-10 06:05:00,
2013-07-10 02:10:00,78.0,65.7,29.65,SSE,157,8.0,12.0,66,0.00,,,0.00,Weather View 32 v70,2013-07-10 06:10:00,
2013-07-10 02:15:00,78.0,62.0,29.65,WSW,247,9.0,12.0,58,0.00,,,0.00,Weather View 32 v70,2013-07-10 06:15:00,
2013-07-10 02:20:00,78.0,65.7,29.64,WSW,247,8.0,12.0,66,0.00,,,0.00,Weather View 32 v70,2013-07-10 06:20:00,
2013-07-10 02:25:00,78.0,62.0,29.64,SSE,157,8.0,12.0,58,0.00,,,0.00,Weather View 32 v70,2013-07-10 06:25:00,
2013-07-10 02:30:00,78.0,65.7,29.63,WSW,247,7.0,12.0,66,0.00,,,0.00,Weather View 32 v70,2013-07-10 06:30:00,
2013-07-10 02:35:00,77.0,60.5,29.63,WSW,247,8.0,12.0,57,0.00,,,0.00,Weather View 32 v70,2013-07-10 06:35:00,
2013-07-10 02:45:00,77.0,60.0,29.62,SSE,157,7.0,12.0,56,0.00,,,0.00,Weather View 32 v70,2013-07-10 06:45:00,
2013-07-10 02:50:00,77.0,64.3,29.62,WSW,247,7.0,12.0,65,0.00,,,0.00,Weather View 32 v70,2013-07-10 06:50:00,
2013-07-10 02:55:00,77.0,60.5,29.62,WSW,247,9.0,12.0,57,0.00,,,0.00,Weather View 32 v70,2013-07-10 06:55:00,
2013-07-10 03:00:00,77.0,64.3,29.63,WSW,247,4.0,12.0,65,0.00,,,0.00,Weather View 32 v70,2013-07-10 07:00:00,
2013-07-10 03:05:00,77.0,60.5,29.63,WSW,247,8.0,12.0,57,0.00,,,0.00,Weather View 32 v70,2013-07-10 07:05:00,
2013-07-10 03:10:00,77.0,64.7,29.62,WSW,247,9.0,12.0,66,0.00,,,0.00,Weather View 32 v70,2013-07-10 07:10:00,
2013-07-10 03:15:00,77.0,61.0,29.62,WSW,247,7.0,12.0,58,0.00,,,0.00,Weather View 32 v70,2013-07-10 07:15:00,
2013-07-10 03:20:00,77.0,64.3,29.61,WSW,247,7.0,12.0,65,0.00,,,0.00,Weather View 32 v70,2013-07-10 07:20:00,
2013-07-10 03:25:00,77.0,60.5,29.61,WSW,247,8.0,12.0,57,0.00,,,0.00,Weather View 32 v70,2013-07-10 07:25:00,
2013-07-10 03:30:00,77.0,64.3,29.61,WSW,247,6.0,12.0,65,0.00,,,0.00,Weather View 32 v70,2013-07-10 07:30:00,
2013-07-10 03:35:00,77.0,60.5,29.61,WSW,247,9.0,12.0,57,0.00,,,0.00,Weather View 32 v70,2013-07-10 07:35:00,
2013-07-10 03:45:00,77.0,60.5,29.61,WSW,247,7.0,12.0,57,0.00,,,0.00,Weather View 32 v70,2013-07-10 07:45:00,
2013-07-10 03:50:00,77.0,64.7,29.63,WSW,247,7.0,12.0,66,0.00,,,0.00,Weather View 32 v70,2013-07-10 07:50:00,
2013-07-10 03:55:00,76.0,59.6,29.63,WSW,247,5.0,12.0,57,0.00,,,0.00,Weather View 32 v70,2013-07-10 07:55:00,
2013-07-10 04:00:00,77.0,64.3,29.63,WSW,247,6.0,12.0,65,0.00,,,0.00,Weather View 32 v70,2013-07-10 08:00:00,
2013-07-10 04:05:00,76.0,59.1,29.63,WSW,247,6.0,12.0,56,0.00,,,0.00,Weather View 32 v70,2013-07-10 08:05:00,
2013-07-10 04:10:00,76.0,63.3,29.62,WSW,247,7.0,10.0,65,0.00,,,0.00,Weather View 32 v70,2013-07-10 08:10:00,
2013-07-10 04:15:00,76.0,59.1,29.62,WSW,247,7.0,10.0,56,0.00,,,0.00,Weather View 32 v70,2013-07-10 08:15:00,
2013-07-10 04:20:00,76.0,62.9,29.63,WSW,247,7.0,10.0,64,0.00,,,0.00,Weather View 32 v70,2013-07-10 08:20:00,
2013-07-10 04:25:00,76.0,58.6,29.63,WSW,247,7.0,10.0,55,0.00,,,0.00,Weather View 32 v70,2013-07-10 08:25:00,
2013-07-10 04:30:00,76.0,62.9,29.62,WSW,247,7.0,10.0,64,0.00,,,0.00,Weather View 32 v70,2013-07-10 08:30:00,
2013-07-10 04:35:00,76.0,58.6,29.62,WSW,247,6.0,10.0,55,0.00,,,0.00,Weather View 32 v70,2013-07-10 08:35:00,
2013-07-10 04:45:00,76.0,59.1,29.62,WSW,247,7.0,9.0,56,0.00,,,0.00,Weather View 32 v70,2013-07-10 08:45:00,
2013-07-10 04:50:00,76.0,62.9,29.64,WSW,247,7.0,8.0,64,0.00,,,0.00,Weather View 32 v70,2013-07-10 08:50:00,
2013-07-10 04:55:00,76.0,59.1,29.64,WSW,247,6.0,8.0,56,0.00,,,0.00,Weather View 32 v70,2013-07-10 08:55:00,
2013-07-10 05:00:00,76.0,59.1,29.64,WSW,247,6.0,8.0,56,0.00,,,0.00,Weather View 32 v70,2013-07-10 09:00:00,
2013-07-10 05:05:00,76.0,58.6,29.65,WSW,247,5.0,8.0,55,0.00,,,0.00,Weather View 32 v70,2013-07-10 09:05:00,
2013-07-10 05:10:00,76.0,58.6,29.65,WSW,247,6.0,8.0,55,0.00,,,0.00,Weather View 32 v70,2013-07-10 09:10:00,
2013-07-10 05:20:00,76.0,58.6,29.62,WSW,247,5.0,8.0,55,0.00,,,0.00,Weather View 32 v70,2013-07-10 09:20:00,
2013-07-10 05:25:00,76.0,58.6,29.62,SSE,157,5.0,8.0,55,0.00,,,0.00,Weather View 32 v70,2013-07-10 09:25:00,
2013-07-10 05:30:00,76.0,58.6,29.62,SSE,157,7.0,8.0,55,0.00,,,0.00,Weather View 32 v70,2013-07-10 09:30:00,
2013-07-10 05:35:00,76.0,59.1,29.64,SSE,157,6.0,8.0,56,0.00,,,0.00,Weather View 32 v70,2013-07-10 09:35:00,
2013-07-10 05:40:00,76.0,60.1,29.64,SSE,157,9.0,9.0,58,0.00,,,0.00,Weather View 32 v70,2013-07-10 09:40:00,
2013-07-10 05:45:00,76.0,59.6,29.62,WSW,247,7.0,9.0,57,0.00,,,0.00,Weather View 32 v70,2013-07-10 09:45:00,
2013-07-10 05:50:00,76.0,60.1,29.62,WSW,247,6.0,9.0,58,0.00,,,0.00,Weather View 32 v70,2013-07-10 09:50:00,
2013-07-10 06:00:00,76.0,60.1,29.64,WSW,247,8.0,9.0,58,0.00,,,0.00,Weather View 32 v70,2013-07-10 10:00:00,
2013-07-10 06:05:00,76.0,59.6,29.63,WSW,247,9.0,9.0,57,0.00,,,0.00,Weather View 32 v70,2013-07-10 10:05:00,
2013-07-10 06:10:00,76.0,60.1,29.63,WSW,247,9.0,9.0,58,0.00,,,0.00,Weather View 32 v70,2013-07-10 10:10:00,
2013-07-10 06:15:00,76.0,59.6,29.63,WSW,247,8.0,9.0,57,0.00,,,0.00,Weather View 32 v70,2013-07-10 10:15:00,
2013-07-10 06:20:00,76.0,59.1,29.63,WSW,247,7.0,9.0,56,0.00,,,0.00,Weather View 32 v70,2013-07-10 10:20:00,
2013-07-10 06:25:00,76.0,59.1,29.62,WSW,247,7.0,9.0,56,0.00,,,0.00,Weather View 32 v70,2013-07-10 10:25:00,
2013-07-10 06:30:00,76.0,59.1,29.62,WSW,247,6.0,9.0,56,0.00,,,0.00,Weather View 32 v70,2013-07-10 10:30:00,
2013-07-10 06:40:00,77.0,60.0,29.62,WSW,247,6.0,9.0,56,0.00,,,0.00,Weather View 32 v70,2013-07-10 10:40:00,
2013-07-10 06:50:00,77.0,60.0,29.63,SSE,157,7.0,10.0,56,0.00,,,0.00,Weather View 32 v70,2013-07-10 10:50:00,
2013-07-10 06:55:00,77.0,60.0,29.61,SSE,157,7.0,10.0,56,0.00,,,0.00,Weather View 32 v70,2013-07-10 10:55:00,
2013-07-10 07:00:00,77.0,61.0,29.61,SSE,157,7.0,10.0,58,0.00,,,0.00,Weather View 32 v70,2013-07-10 11:00:00,
2013-07-10 07:05:00,77.0,61.0,29.63,SSE,157,9.0,10.0,58,0.00,,,0.00,Weather View 32 v70,2013-07-10 11:05:00,
2013-07-10 07:10:00,78.0,62.0,29.63,SSE,157,7.0,10.0,58,0.00,,,0.00,Weather View 32 v70,2013-07-10 11:10:00,
2013-07-10 07:15:00,78.0,62.0,29.63,WSW,247,9.0,10.0,58,0.00,,,0.00,Weather View 32 v70,2013-07-10 11:15:00,
2013-07-10 07:25:00,78.0,62.0,29.61,WSW,247,7.0,12.0,58,0.00,,,0.00,Weather View 32 v70,2013-07-10 11:25:00,
2013-07-10 07:30:00,78.0,62.0,29.61,SSE,157,9.0,12.0,58,0.00,,,0.00,Weather View 32 v70,2013-07-10 11:30:00,
2013-07-10 07:35:00,78.0,62.0,29.61,WSW,247,9.0,12.0,58,0.00,,,0.00,Weather View 32 v70,2013-07-10 11:35:00,
2013-07-10 07:40:00,78.0,62.0,29.61,WSW,247,10.0,12.0,58,0.00,,,0.00,Weather View 32 v70,2013-07-10 11:40:00,
2013-07-10 07:50:00,79.0,63.4,29.62,SSE,157,4.0,12.0,59,0.00,,,0.00,Weather View 32 v70,2013-07-10 11:50:00,
2013-07-10 07:55:00,79.0,63.9,29.60,SSE,157,7.0,12.0,60,0.00,,,0.00,Weather View 32 v70,2013-07-10 11:55:00,
2013-07-10 08:00:00,79.0,63.9,29.60,SSE,157,1.0,12.0,60,0.00,,,0.00,Weather View 32 v70,2013-07-10 12:00:00,
2013-07-10 08:10:00,79.0,63.4,29.63,WSW,247,12.0,13.0,59,0.00,,,0.00,Weather View 32 v70,2013-07-10 12:10:00,
2013-07-10 08:15:00,79.0,63.4,29.61,SSE,157,9.0,13.0,59,0.00,,,0.00,Weather View 32 v70,2013-07-10 12:15:00,
2013-07-10 08:20:00,79.0,63.9,29.61,WSW,247,8.0,14.0,60,0.00,,,0.00,Weather View 32 v70,2013-07-10 12:20:00,
2013-07-10 08:25:00,79.0,63.4,29.61,WSW,247,6.0,14.0,59,0.00,,,0.00,Weather View 32 v70,2013-07-10 12:25:00,
2013-07-10 08:30:00,79.0,63.9,29.61,SSE,157,8.0,14.0,60,0.00,,,0.00,Weather View 32 v70,2013-07-10 12:30:00,
2013-07-10 08:35:00,79.0,63.9,29.63,WSW,247,13.0,17.0,60,0.00,,,0.00,Weather View 32 v70,2013-07-10 12:35:00,
2013-07-10 08:40:00,79.0,63.9,29.63,WSW,247,12.0,17.0,60,0.00,,,0.00,Weather View 32 v70,2013-07-10 12:40:00,
2013-07-10 08:50:00,79.0,63.9,29.63,SSE,157,8.0,18.0,60,0.00,,,0.00,Weather View 32 v70,2013-07-10 12:50:00,
2013-07-10 08:55:00,80.0,65.3,29.62,SSE,157,10.0,18.0,61,0.00,,,0.00,Weather View 32 v70,2013-07-10 12:55:00,
2013-07-10 09:00:00,80.0,65.8,29.62,SSE,157,16.0,18.0,62,0.00,,,0.00,Weather View 32 v70,2013-07-10 13:00:00,
2013-07-10 09:05:00,80.0,65.3,29.61,WSW,247,15.0,18.0,61,0.00,,,0.00,Weather View 32 v70,2013-07-10 13:05:00,
2013-07-10 09:10:00,80.0,65.8,29.61,WSW,247,13.0,18.0,62,0.00,,,0.00,Weather View 32 v70,2013-07-10 13:10:00,
2013-07-10 09:15:00,80.0,65.8,29.62,WSW,247,13.0,18.0,62,0.00,,,0.00,Weather View 32 v70,2013-07-10 13:15:00,
2013-07-10 09:20:00,80.0,65.8,29.62,SSE,157,12.0,18.0,62,0.00,,,0.00,Weather View 32 v70,2013-07-10 13:20:00,
2013-07-10 09:25:00,81.0,66.7,29.64,SSE,157,10.0,18.0,62,0.00,,,0.00,Weather View 32 v70,2013-07-10 13:25:00,
2013-07-10 09:30:00,81.0,66.7,29.64,SSE,157,12.0,18.0,62,0.00,,,0.00,Weather View 32 v70,2013-07-10 13:30:00,
2013-07-10 09:40:00,81.0,66.7,29.61,SSE,157,10.0,18.0,62,0.00,,,0.00,Weather View 32 v70,2013-07-10 13:40:00,
2013-07-10 09:45:00,81.0,66.7,29.61,SSE,157,10.0,18.0,62,0.00,,,0.00,Weather View 32 v70,2013-07-10 13:45:00,
2013-07-10 09:50:00,80.0,65.8,29.61,SSE,157,13.0,18.0,62,0.00,,,0.00,Weather View 32 v70,2013-07-10 13:50:00,
2013-07-10 09:55:00,80.0,65.8,29.63,SSE,157,12.0,18.0,62,0.00,,,0.00,Weather View 32 v70,2013-07-10 13:55:00,
2013-07-10 10:00:00,80.0,65.8,29.63,SSE,157,13.0,18.0,62,0.00,,,0.00,Weather View 32 v70,2013-07-10 14:00:00,
2013-07-10 10:05:00,80.0,65.8,29.65,SSE,157,6.0,18.0,62,0.00,,,0.00,Weather View 32 v70,2013-07-10 14:05:00,
2013-07-10 10:10:00,80.0,65.8,29.65,SSE,157,9.0,19.0,62,0.00,,,0.00,Weather View 32 v70,2013-07-10 14:10:00,
2013-07-10 10:15:00,80.0,65.8,29.62,WSW,247,11.0,19.0,62,0.00,,,0.00,Weather View 32 v70,2013-07-10 14:15:00,
2013-07-10 10:25:00,80.0,65.8,29.63,WSW,247,14.0,20.0,62,0.00,,,0.00,Weather View 32 v70,2013-07-10 14:25:00,
2013-07-10 10:30:00,81.0,66.7,29.63,SSE,157,9.0,20.0,62,0.00,,,0.00,Weather View 32 v70,2013-07-10 14:30:00,
2013-07-10 10:35:00,82.0,68.1,29.64,SSE,157,12.0,20.0,63,0.00,,,0.00,Weather View 32 v70,2013-07-10 14:35:00,
2013-07-10 10:40:00,82.0,68.1,29.64,SSE,157,10.0,20.0,63,0.00,,,0.00,Weather View 32 v70,2013-07-10 14:40:00,
2013-07-10 10:45:00,81.0,67.2,29.61,SSE,157,10.0,20.0,63,0.00,,,0.00,Weather View 32 v70,2013-07-10 14:45:00,
2013-07-10 10:50:00,81.0,67.2,29.61,SSE,157,6.0,20.0,63,0.00,,,0.00,Weather View 32 v70,2013-07-10 14:50:00,
2013-07-10 10:55:00,81.0,66.7,29.61,SSE,157,6.0,20.0,62,0.00,,,0.00,Weather View 32 v70,2013-07-10 14:55:00,
2013-07-10 11:00:00,80.0,65.8,29.61,SSE,157,9.0,20.0,62,0.00,,,0.00,Weather View 32 v70,2013-07-10 15:00:00,
2013-07-10 11:05:00,80.0,65.8,29.63,SSE,157,10.0,20.0,62,0.00,,,0.00,Weather View 32 v70,2013-07-10 15:05:00,
2013-07-10 11:10:00,81.0,67.2,29.63,SSE,157,9.0,20.0,63,0.00,,,0.00,Weather View 32 v70,2013-07-10 15:10:00,
2013-07-10 11:15:00,81.0,67.2,29.63,SSE,157,17.0,20.0,63,0.00,,,0.00,Weather View 32 v70,2013-07-10 15:15:00,
2013-07-10 11:25:00,81.0,67.2,29.61,SSE,157,16.0,19.0,63,0.00,,,0.00,Weather View 32 v70,2013-07-10 15:25:00,
2013-07-10 11:30:00,81.0,67.2,29.61,SSE,157,10.0,19.0,63,0.00,,,0.00,Weather View 32 v70,2013-07-10 15:30:00,
2013-07-10 11:35:00,81.0,67.6,29.63,SSE,157,10.0,19.0,64,0.00,,,0.00,Weather View 32 v70,2013-07-10 15:35:00,
2013-07-10 11:40:00,81.0,67.6,29.63,SSE,157,11.0,20.0,64,0.00,,,0.00,Weather View 32 v70,2013-07-10 15:40:00,
2013-07-10 11:45:00,81.0,67.6,29.63,WSW,247,11.0,20.0,64,0.00,,,0.00,Weather View 32 v70,2013-07-10 15:45:00,
2013-07-10 11:50:00,81.0,67.6,29.63,SSE,157,13.0,20.0,64,0.00,,,0.00,Weather View 32 v70,2013-07-10 15:50:00,
2013-07-10 11:55:00,82.0,68.6,29.62,SSE,157,10.0,20.0,64,0.00,,,0.00,Weather View 32 v70,2013-07-10 15:55:00,
2013-07-10 12:00:00,82.0,69.0,29.62,SSE,157,13.0,20.0,65,0.00,,,0.00,Weather View 32 v70,2013-07-10 16:00:00,
2013-07-10 12:05:00,82.0,69.0,29.60,SSE,157,11.0,20.0,65,0.00,,,0.00,Weather View 32 v70,2013-07-10 16:05:00,
2013-07-10 12:15:00,82.0,69.0,29.59,SSE,157,8.0,22.0,65,0.00,,,0.00,Weather View 32 v70,2013-07-10 16:15:00,
2013-07-10 12:20:00,82.0,69.5,29.59,SSE,157,15.0,23.0,66,0.00,,,0.00,Weather View 32 v70,2013-07-10 16:20:00,
2013-07-10 12:25:00,81.0,68.1,29.61,SSE,157,8.0,23.0,65,0.00,,,0.00,Weather View 32 v70,2013-07-10 16:25:00,
2013-07-10 12:30:00,82.0,69.5,29.61,SSE,157,20.0,23.0,66,0.00,,,0.00,Weather View 32 v70,2013-07-10 16:30:00,
2013-07-10 12:35:00,82.0,69.5,29.62,SSE,157,16.0,23.0,66,0.00,,,0.00,Weather View 32 v70,2013-07-10 16:35:00,
2013-07-10 12:40:00,82.0,69.5,29.62,SSE,157,14.0,23.0,66,0.00,,,0.00,Weather View 32 v70,2013-07-10 16:40:00,
2013-07-10 12:45:00,82.0,69.5,29.59,SSE,157,15.0,23.0,66,0.00,,,0.00,Weather View 32 v70,2013-07-10 16:45:00,
2013-07-10 12:50:00,82.0,69.9,29.59,SSE,157,12.0,23.0,67,0.00,,,0.00,Weather View 32 v70,2013-07-10 16:50:00,
2013-07-10 12:55:00,82.0,69.5,29.58,SSE,157,14.0,23.0,66,0.00,,,0.00,Weather View 32 v70,2013-07-10 16:55:00,
2013-07-10 13:00:00,83.0,70.9,29.58,SSE,157,10.0,23.0,67,0.00,,,0.00,Weather View 32 v70,2013-07-10 17:00:00,
2013-07-10 13:10:00,83.0,70.9,29.60,SSE,157,18.0,23.0,67,0.00,,,0.00,Weather View 32 v70,2013-07-10 17:10:00,
2013-07-10 13:15:00,83.0,70.9,29.59,SSE,157,7.0,23.0,67,0.00,,,0.00,Weather View 32 v70,2013-07-10 17:15:00,
2013-07-10 13:20:00,82.0,69.9,29.59,WSW,247,3.0,23.0,67,0.00,,,0.00,Weather View 32 v70,2013-07-10 17:20:00,
2013-07-10 13:25:00,82.0,69.9,29.59,SSE,157,13.0,21.0,67,0.00,,,0.00,Weather View 32 v70,2013-07-10 17:25:00,
2013-07-10 13:30:00,82.0,69.9,29.59,SSE,157,6.0,21.0,67,0.00,,,0.00,Weather View 32 v70,2013-07-10 17:30:00,
2013-07-10 13:35:00,82.0,69.9,29.58,SSE,157,17.0,21.0,67,0.00,,,0.00,Weather View 32 v70,2013-07-10 17:35:00,
2013-07-10 13:40:00,82.0,69.9,29.58,SSE,157,7.0,21.0,67,0.00,,,0.00,Weather View 32 v70,2013-07-10 17:40:00,
2013-07-10 13:45:00,81.0,69.0,29.61,SSE,157,12.0,21.0,67,0.00,,,0.00,Weather View 32 v70,2013-07-10 17:45:00,
2013-07-10 13:55:00,81.0,69.0,29.59,SSE,157,8.0,19.0,67,0.00,,,0.00,Weather View 32 v70,2013-07-10 17:55:00,
2013-07-10 14:00:00,81.0,69.0,29.59,SSE,157,9.0,19.0,67,0.00,,,0.00,Weather View 32 v70,2013-07-10 18:00:00,
2013-07-10 14:05:00,81.0,68.5,29.59,SSE,157,6.0,19.0,66,0.00,,,0.00,Weather View 32 v70,2013-07-10 18:05:00,
2013-07-10 14:10:00,82.0,69.9,29.59,SSE,157,9.0,19.0,67,0.00,,,0.00,Weather View 32 v70,2013-07-10 18:10:00,
2013-07-10 14:15:00,82.0,69.9,29.57,SSE,157,12.0,20.0,67,0.00,,,0.00,Weather View 32 v70,2013-07-10 18:15:00,
2013-07-10 14:20:00,82.0,69.9,29.57,SSE,157,11.0,20.0,67,0.00,,,0.00,Weather View 32 v70,2013-07-10 18:20:00,
2013-07-10 14:25:00,83.0,70.9,29.59,SSE,157,6.0,20.0,67,0.00,,,0.00,Weather View 32 v70,2013-07-10 18:25:00,
2013-07-10 14:30:00,82.0,69.9,29.59,SSE,157,13.0,20.0,67,0.00,,,0.00,Weather View 32 v70,2013-07-10 18:30:00,
2013-07-10 14:40:00,81.0,68.5,29.57,SSE,157,12.0,21.0,66,0.00,,,0.00,Weather View 32 v70,2013-07-10 18:40:00,
2013-07-10 14:45:00,82.0,69.5,29.57,SSE,157,17.0,21.0,66,0.00,,,0.00,Weather View 32 v70,2013-07-10 18:45:00,
2013-07-10 14:50:00,82.0,69.5,29.57,SSE,157,9.0,21.0,66,0.00,,,0.00,Weather View 32 v70,2013-07-10 18:50:00,
2013-07-10 14:55:00,82.0,69.5,29.56,SSE,157,9.0,21.0,66,0.00,,,0.00,Weather View 32 v70,2013-07-10 18:55:00,
2013-07-10 15:00:00,82.0,69.9,29.56,WSW,247,10.0,21.0,67,0.00,,,0.00,Weather View 32 v70,2013-07-10 19:00:00,
2013-07-10 15:05:00,83.0,70.9,29.56,SSE,157,11.0,23.0,67,0.00,,,0.00,Weather View 32 v70,2013-07-10 19:05:00,
2013-07-10 15:10:00,83.0,70.9,29.56,SSE,157,7.0,23.0,67,0.00,,,0.00,Weather View 32 v70,2013-07-10 19:10:00,
2013-07-10 15:15:00,83.0,70.9,29.56,SSE,157,7.0,23.0,67,0.00,,,0.00,Weather View 32 v70,2013-07-10 19:15:00,
2013-07-10 15:20:00,82.0,69.9,29.56,SSE,157,18.0,23.0,67,0.00,,,0.00,Weather View 32 v70,2013-07-10 19:20:00,
2013-07-10 15:30:00,82.0,69.9,29.54,SSE,157,19.0,23.0,67,0.00,,,0.00,Weather View 32 v70,2013-07-10 19:30:00,
2013-07-10 15:35:00,83.0,70.9,29.55,SSE,157,16.0,23.0,67,0.00,,,0.00,Weather View 32 v70,2013-07-10 19:35:00,
2013-07-10 15:40:00,82.0,69.9,29.55,SSE,157,14.0,23.0,67,0.00,,,0.00,Weather View 32 v70,2013-07-10 19:40:00,
2013-07-10 15:45:00,82.0,69.9,29.56,SSE,157,14.0,23.0,67,0.00,,,0.00,Weather View 32 v70,2013-07-10 19:45:00,
2013-07-10 15:50:00,82.0,69.9,29.56,SSE,157,19.0,23.0,67,0.00,,,0.00,Weather View 32 v70,2013-07-10 19:50:00,
2013-07-10 15:55:00,82.0,69.9,29.53,SSE,157,13.0,23.0,67,0.00,,,0.00,Weather View 32 v70,2013-07-10 19:55:00,
2013-07-10 16:00:00,82.0,69.9,29.53,SSE,157,16.0,23.0,67,0.00,,,0.00,Weather View 32 v70,2013-07-10 20:00:00,
2013-07-10 16:10:00,83.0,71.3,29.54,SSE,157,6.0,23.0,68,0.00,,,0.00,Weather View 32 v70,2013-07-10 20:10:00,
2013-07-10 16:18:00,83.0,71.3,29.53,SSE,157,6.0,23.0,68,0.00,,,0.00,Weather View 32 v70,2013-07-10 20:18:00,
2013-07-10 16:25:00,82.0,69.9,29.53,SSE,157,14.0,23.0,67,0.00,,,0.00,Weather View 32 v70,2013-07-10 20:25:00,
2013-07-10 16:30:00,82.0,69.9,29.53,SSE,157,20.0,23.0,67,0.00,,,0.00,Weather View 32 v70,2013-07-10 20:30:00,
2013-07-10 16:35:00,82.0,69.9,29.54,SSE,157,13.0,23.0,67,0.00,,,0.00,Weather View 32 v70,2013-07-10 20:35:00,
2013-07-10 16:40:00,82.0,70.3,29.54,SSE,157,20.0,23.0,68,0.00,,,0.00,Weather View 32 v70,2013-07-10 20:40:00,
2013-07-10 16:45:00,82.0,69.9,29.53,SSE,157,10.0,23.0,67,0.00,,,0.00,Weather View 32 v70,2013-07-10 20:45:00,
2013-07-10 16:50:00,82.0,69.9,29.53,SSE,157,8.0,23.0,67,0.00,,,0.00,Weather View 32 v70,2013-07-10 20:50:00,
2013-07-10 16:55:00,82.0,69.9,29.52,SSE,157,11.0,23.0,67,0.00,,,0.00,Weather View 32 v70,2013-07-10 20:55:00,
2013-07-10 17:00:00,82.0,69.9,29.52,SSE,157,17.0,23.0,67,0.00,,,0.00,Weather View 32 v70,2013-07-10 21:00:00,
2013-07-10 17:10:00,82.0,69.9,29.53,SSE,157,15.0,23.0,67,0.00,,,0.00,Weather View 32 v70,2013-07-10 21:10:00,
2013-07-10 17:15:00,82.0,69.5,29.55,SSE,157,9.0,23.0,66,0.00,,,0.00,Weather View 32 v70,2013-07-10 21:15:00,
2013-07-10 17:20:00,82.0,69.5,29.55,WSW,247,17.0,23.0,66,0.00,,,0.00,Weather View 32 v70,2013-07-10 21:20:00,
2013-07-10 17:25:00,82.0,69.5,29.53,SSE,157,9.0,23.0,66,0.00,,,0.00,Weather View 32 v70,2013-07-10 21:25:00,
2013-07-10 17:30:00,82.0,69.5,29.53,SSE,157,13.0,23.0,66,0.00,,,0.00,Weather View 32 v70,2013-07-10 21:30:00,
2013-07-10 17:35:00,82.0,69.5,29.52,SSE,157,10.0,23.0,66,0.00,,,0.00,Weather View 32 v70,2013-07-10 21:35:00,
2013-07-10 17:40:00,82.0,69.5,29.52,SSE,157,7.0,23.0,66,0.00,,,0.00,Weather View 32 v70,2013-07-10 21:40:00,
2013-07-10 17:45:00,81.0,68.5,29.54,WSW,247,16.0,23.0,66,0.00,,,0.00,Weather View 32 v70,2013-07-10 21:45:00,
2013-07-10 17:50:00,81.0,68.5,29.54,SSE,157,14.0,22.0,66,0.00,,,0.00,Weather View 32 v70,2013-07-10 21:50:00,
2013-07-10 18:00:00,81.0,68.5,29.51,SSE,157,15.0,22.0,66,0.00,,,0.00,Weather View 32 v70,2013-07-10 22:00:00,
2013-07-10 18:05:00,81.0,68.5,29.55,SSE,157,8.0,22.0,66,0.00,,,0.00,Weather View 32 v70,2013-07-10 22:05:00,
2013-07-10 18:10:00,81.0,68.5,29.55,SSE,157,16.0,22.0,66,0.00,,,0.00,Weather View 32 v70,2013-07-10 22:10:00,
2013-07-10 18:15:00,81.0,68.5,29.51,SSE,157,17.0,22.0,66,0.00,,,0.00,Weather View 32 v70,2013-07-10 22:15:00,
2013-07-10 18:20:00,81.0,68.5,29.51,SSE,157,12.0,23.0,66,0.00,,,0.00,Weather View 32 v70,2013-07-10 22:20:00,
2013-07-10 18:25:00,81.0,68.5,29.51,WSW,247,6.0,23.0,66,0.00,,,0.00,Weather View 32 v70,2013-07-10 22:25:00,
2013-07-10 18:30:00,81.0,68.5,29.51,SSE,157,11.0,23.0,66,0.00,,,0.00,Weather View 32 v70,2013-07-10 22:30:00,
2013-07-10 18:35:00,81.0,69.0,29.52,SSE,157,20.0,23.0,67,0.00,,,0.00,Weather View 32 v70,2013-07-10 22:35:00,
2013-07-10 18:45:00,81.0,69.0,29.54,SSE,157,16.0,26.0,67,0.00,,,0.00,Weather View 32 v70,2013-07-10 22:45:00,
2013-07-10 18:50:00,81.0,68.5,29.54,SSE,157,14.0,26.0,66,0.00,,,0.00,Weather View 32 v70,2013-07-10 22:50:00,
2013-07-10 18:55:00,80.0,67.6,29.51,SSE,157,19.0,26.0,66,0.00,,,0.00,Weather View 32 v70,2013-07-10 22:55:00,
2013-07-10 19:00:00,80.0,67.6,29.51,SSE,157,13.0,26.0,66,0.00,,,0.00,Weather View 32 v70,2013-07-10 23:00:00,
2013-07-10 19:05:00,80.0,67.6,29.51,SSE,157,13.0,26.0,66,0.00,,,0.00,Weather View 32 v70,2013-07-10 23:05:00,
2013-07-10 19:10:00,80.0,67.1,29.51,SSE,157,15.0,26.0,65,0.00,,,0.00,Weather View 32 v70,2013-07-10 23:10:00,
2013-07-10 19:15:00,80.0,67.1,29.53,SSE,157,18.0,26.0,65,0.00,,,0.00,Weather View 32 v70,2013-07-10 23:15:00,
2013-07-10 19:20:00,79.0,66.2,29.53,SSE,157,15.0,26.0,65,0.00,,,0.00,Weather View 32 v70,2013-07-10 23:20:00,
2013-07-10 19:25:00,79.0,66.2,29.51,SSE,157,14.0,26.0,65,0.00,,,0.00,Weather View 32 v70,2013-07-10 23:25:00,
2013-07-10 19:30:00,79.0,66.2,29.51,WSW,247,10.0,26.0,65,0.00,,,0.00,Weather View 32 v70,2013-07-10 23:30:00,
2013-07-10 19:40:00,79.0,65.7,29.51,SSE,157,9.0,25.0,64,0.00,,,0.00,Weather View 32 v70,2013-07-10 23:40:00,
2013-07-10 19:45:00,79.0,65.7,29.51,SSE,157,12.0,25.0,64,0.00,,,0.00,Weather View 32 v70,2013-07-10 23:45:00,
2013-07-10 19:50:00,79.0,65.7,29.51,WSW,247,7.0,23.0,64,0.00,,,0.00,Weather View 32 v70,2013-07-10 23:50:00,
2013-07-10 19:55:00,79.0,66.2,29.53,SSE,157,19.0,23.0,65,0.00,,,0.00,Weather View 32 v70,2013-07-10 23:55:00,
2013-07-10 20:00:00,79.0,66.2,29.53,SSE,157,13.0,23.0,65,0.00,,,0.00,Weather View 32 v70,2013-07-11 00:00:00,
2013-07-10 20:05:00,79.0,65.7,29.51,WSW,247,7.0,22.0,64,0.00,,,0.00,Weather View 32 v70,2013-07-11 00:05:00,
2013-07-10 20:15:00,79.0,65.7,29.51,SSE,157,15.0,22.0,64,0.00,,,0.00,Weather View 32 v70,2013-07-11 00:15:00,
2013-07-10 20:20:00,79.0,65.7,29.51,WSW,247,13.0,20.0,64,0.00,,,0.00,Weather View 32 v70,2013-07-11 00:20:00,
2013-07-10 20:30:00,79.0,65.3,29.51,SSE,157,10.0,20.0,63,0.00,,,0.00,Weather View 32 v70,2013-07-11 00:30:00,
2013-07-10 20:35:00,79.0,65.3,29.53,SSE,157,11.0,20.0,63,0.00,,,0.00,Weather View 32 v70,2013-07-11 00:35:00,
2013-07-10 20:40:00,78.0,63.9,29.53,SSE,157,9.0,20.0,62,0.00,,,0.00,Weather View 32 v70,2013-07-11 00:40:00,
2013-07-10 20:45:00,78.0,63.9,29.52,SSE,157,12.0,19.0,62,0.00,,,0.00,Weather View 32 v70,2013-07-11 00:45:00,
2013-07-10 20:50:00,78.0,63.9,29.52,SSE,157,12.0,19.0,62,0.00,,,0.00,Weather View 32 v70,2013-07-11 00:50:00,
2013-07-10 20:55:00,78.0,63.4,29.53,SSE,157,7.0,19.0,61,0.00,,,0.00,Weather View 32 v70,2013-07-11 00:55:00,
2013-07-10 21:00:00,78.0,63.9,29.53,SSE,157,10.0,19.0,62,0.00,,,0.00,Weather View 32 v70,2013-07-11 01:00:00,
2013-07-10 21:05:00,78.0,63.4,29.53,SSE,157,13.0,19.0,61,0.00,,,0.00,Weather View 32 v70,2013-07-11 01:05:00,
2013-07-10 21:10:00,78.0,63.4,29.53,WSW,247,9.0,19.0,61,0.00,,,0.00,Weather View 32 v70,2013-07-11 01:10:00,
2013-07-10 21:15:00,78.0,63.9,29.53,SSE,157,12.0,19.0,62,0.00,,,0.00,Weather View 32 v70,2013-07-11 01:15:00,
2013-07-10 21:20:00,78.0,63.4,29.53,WSW,247,7.0,17.0,61,0.00,,,0.00,Weather View 32 v70,2013-07-11 01:20:00,
2013-07-10 21:30:00,78.0,62.9,29.53,SSE,157,11.0,16.0,60,0.00,,,0.00,Weather View 32 v70,2013-07-11 01:30:00,
2013-07-10 21:35:00,78.0,62.9,29.55,SSE,157,6.0,15.0,60,0.00,,,0.00,Weather View 32 v70,2013-07-11 01:35:00,
2013-07-10 21:40:00,78.0,62.9,29.55,SSE,157,7.0,15.0,60,0.00,,,0.00,Weather View 32 v70,2013-07-11 01:40:00,
2013-07-10 21:45:00,78.0,62.5,29.54,WSW,247,11.0,15.0,59,0.00,,,0.00,Weather View 32 v70,2013-07-11 01:45:00,
2013-07-10 21:50:00,78.0,62.5,29.54,SSE,157,12.0,16.0,59,0.00,,,0.00,Weather View 32 v70,2013-07-11 01:50:00,
2013-07-10 21:55:00,78.0,62.5,29.54,SSE,157,12.0,17.0,59,0.00,,,0.00,Weather View 32 v70,2013-07-11 01:55:00,
2013-07-10 22:00:00,78.0,62.9,29.54,SSE,157,13.0,17.0,60,0.00,,,0.00,Weather View 32 v70,2013-07-11 02:00:00,
2013-07-10 22:05:00,78.0,62.9,29.55,SSE,157,11.0,17.0,60,0.00,,,0.00,Weather View 32 v70,2013-07-11 02:05:00,
2013-07-10 22:15:00,78.0,62.9,29.55,SSE,157,9.0,17.0,60,0.00,,,0.00,Weather View 32 v70,2013-07-11 02:15:00,
2013-07-10 22:21:00,78.0,62.9,29.55,SSE,157,9.0,17.0,60,0.00,,,0.00,Weather View 32 v70,2013-07-11 02:21:00,
2013-07-10 22:30:00,78.0,62.9,29.55,WSW,247,7.0,17.0,60,0.00,,,0.00,Weather View 32 v70,2013-07-11 02:30:00,
2013-07-10 22:40:00,78.0,63.4,29.54,SSE,157,10.0,17.0,61,0.00,,,0.00,Weather View 32 v70,2013-07-11 02:40:00,
2013-07-10 22:45:00,78.0,62.9,29.57,SSE,157,9.0,17.0,60,0.00,,,0.00,Weather View 32 v70,2013-07-11 02:45:00,
2013-07-10 22:50:00,78.0,63.4,29.57,SSE,157,10.0,17.0,61,0.00,,,0.00,Weather View 32 v70,2013-07-11 02:50:00,
2013-07-10 22:55:00,78.0,62.9,29.56,SSE,157,7.0,17.0,60,0.00,,,0.00,Weather View 32 v70,2013-07-11 02:55:00,
2013-07-10 23:00:00,78.0,62.9,29.56,SSE,157,7.0,17.0,60,0.00,,,0.00,Weather View 32 v70,2013-07-11 03:00:00,
2013-07-10 23:10:00,78.0,62.9,29.54,SSE,157,11.0,16.0,60,0.00,,,0.00,Weather View 32 v70,2013-07-11 03:10:00,
2013-07-10 23:15:00,78.0,62.5,29.56,SSE,157,6.0,22.0,59,0.00,,,0.00,Weather View 32 v70,2013-07-11 03:15:00,
2013-07-10 23:20:00,77.0,61.5,29.56,SSE,157,17.0,23.0,59,0.00,,,0.00,Weather View 32 v70,2013-07-11 03:20:00,
2013-07-10 23:25:00,76.0,61.5,29.55,SSE,157,12.0,25.0,61,0.00,,,0.00,Weather View 32 v70,2013-07-11 03:25:00,
2013-07-10 23:30:00,76.0,62.0,29.55,SSE,157,9.0,25.0,62,0.00,,,0.00,Weather View 32 v70,2013-07-11 03:30:00,
2013-07-10 23:35:00,77.0,62.9,29.55,SSE,157,14.0,25.0,62,0.00,,,0.00,Weather View 32 v70,2013-07-11 03:35:00,
2013-07-10 23:40:00,77.0,62.0,29.55,SSE,157,7.0,25.0,60,0.00,,,0.00,Weather View 32 v70,2013-07-11 03:40:00,
2013-07-10 23:45:00,77.0,62.0,29.53,SSE,157,14.0,25.0,60,0.00,,,0.00,Weather View 32 v70,2013-07-11 03:45:00,
2013-07-10 23:50:00,78.0,62.9,29.53,SSE,157,12.0,25.0,60,0.00,,,0.00,Weather View 32 v70,2013-07-11 03:50:00,